Find Kosmos-1331

NORAD ID: 13027 Int'l Des: 1982-001 Owner: GUKOS Country: SU operational
LEOCIRCULAR

实时位置

正在加载3D地球...

关于 Kosmos-1331

正在加载描述...

即将过境

Passes for default location (London). Set your location on the main map for personalized predictions.

高度历史

Loading altitude history...

两行轨道根数

1 13027U 82001A 26106.18681593 .00000076 00000-0 33865-4 0 9992
2 13027 74.0455 269.9482 0024440 232.0842 127.8103 14.37710588318665
Epoch: Apr 16, 2026 • Age: 9 hours

当前状态

高度 767.4 km
速度 7.47 km/s
星下点 30.30°N, 32.12°E
发射日期 Jan 7, 1982
运行时间 44.2 years
类型 other

技术详情

分类 Payload
质量 800.00 kg
干质量 800.00 kg
总质量 800.00 kg
长度 3.00 m
直径 2.00 m
跨度 3.00 m
形状 Cyl
制造商 NPOPM
平台类型 Strela-2M
阶段状态 In Orbit
所有者/国家 GUKOS/SU

Most Searched